TimeEST,TemperatureF,Dew PointF,Humidity,Sea Level PressureIn,VisibilityMPH,Wind Direction,Wind SpeedMPH,Gust SpeedMPH,PrecipitationIn,Events,Conditions,WindDirDegrees,DateUTC
12:15 AM,37.4,24.8,60,30.31,10.0,NNW,8.1,16.1,N/A,,Clear,340,2012-12-06 05:15:00
12:35 AM,35.6,24.8,65,30.31,10.0,NNW,10.4,-,N/A,,Clear,340,2012-12-06 05:35:00
12:55 AM,35.6,24.8,65,30.31,10.0,North,8.1,-,N/A,,Clear,350,2012-12-06 05:55:00
1:15 AM,33.8,24.8,70,30.31,10.0,NNW,3.5,-,N/A,,Clear,330,2012-12-06 06:15:00
1:35 AM,33.8,24.8,70,30.31,10.0,North,3.5,-,N/A,,Clear,350,2012-12-06 06:35:00
1:55 AM,32.0,24.8,75,30.32,10.0,NNW,4.6,-,N/A,,Clear,330,2012-12-06 06:55:00
2:15 AM,32.0,26.6,80,30.32,10.0,Calm,Calm,-,N/A,,Clear,0,2012-12-06 07:15:00
2:35 AM,28.4,26.6,93,30.33,10.0,SE,3.5,-,N/A,,Clear,130,2012-12-06 07:35:00
2:55 AM,26.6,26.6,100,30.33,10.0,Calm,Calm,-,N/A,,Clear,0,2012-12-06 07:55:00
3:15 AM,26.6,24.8,93,30.34,10.0,Calm,Calm,-,N/A,,Clear,0,2012-12-06 08:15:00
3:35 AM,24.8,23.0,93,30.34,10.0,Calm,Calm,-,N/A,,Clear,0,2012-12-06 08:35:00
3:55 AM,24.8,23.0,93,30.34,10.0,SSE,3.5,-,N/A,,Clear,150,2012-12-06 08:55:00
4:15 AM,24.8,23.0,93,30.34,10.0,Calm,Calm,-,N/A,,Clear,0,2012-12-06 09:15:00
4:35 AM,24.8,23.0,93,30.33,10.0,Calm,Calm,-,N/A,,Clear,0,2012-12-06 09:35:00
4:55 AM,24.8,21.2,86,30.34,10.0,Calm,Calm,-,N/A,,Clear,0,2012-12-06 09:55:00
5:15 AM,24.8,23.0,93,30.35,10.0,Calm,Calm,-,N/A,,Clear,0,2012-12-06 10:15:00
5:35 AM,24.8,21.2,86,30.35,10.0,Calm,Calm,-,N/A,,Clear,0,2012-12-06 10:35:00
5:55 AM,23.0,21.2,93,30.35,10.0,Calm,Calm,-,N/A,,Clear,0,2012-12-06 10:55:00
6:15 AM,24.8,21.2,86,30.35,10.0,NNE,4.6,-,N/A,,Clear,20,2012-12-06 11:15:00
6:35 AM,23.0,21.2,93,30.36,10.0,NNE,3.5,-,N/A,,Clear,20,2012-12-06 11:35:00
7:45 AM,28.4,26.6,93,30.38,10.0,NNE,4.6,-,N/A,,Clear,20,2012-12-06 12:45:00
8:50 AM,32.0,28.4,87,30.40,10.0,Calm,Calm,-,N/A,,Clear,0,2012-12-06 13:50:00
9:45 AM,37.4,24.8,60,30.41,10.0,NNE,6.9,-,N/A,,Clear,20,2012-12-06 14:45:00
10:45 AM,39.2,23.0,52,30.39,10.0,NE,5.8,-,N/A,,Clear,50,2012-12-06 15:45:00
11:50 AM,41.0,21.2,45,30.35,10.0,NE,3.5,-,N/A,,Clear,50,2012-12-06 16:50:00
12:55 PM,42.8,21.2,42,30.31,10.0,WSW,5.8,-,N/A,,Clear,240,2012-12-06 17:55:00
1:45 PM,42.8,21.2,42,30.29,10.0,SSW,3.5,-,N/A,,Clear,200,2012-12-06 18:45:00
2:45 PM,44.6,23.0,43,30.28,10.0,West,3.5,-,N/A,,Clear,260,2012-12-06 19:45:00
4:45 PM,39.2,24.8,56,30.28,10.0,Variable,5.8,-,N/A,,Clear,0,2012-12-06 21:45:00
5:45 PM,35.6,24.8,65,30.28,10.0,Calm,Calm,-,N/A,,Clear,0,2012-12-06 22:45:00
6:50 PM,33.8,28.4,81,30.27,10.0,Calm,Calm,-,N/A,,Clear,0,2012-12-06 23:50:00
7:45 PM,32.0,28.4,87,30.27,10.0,Calm,Calm,-,N/A,,Clear,0,2012-12-07 00:45:00
10:15 PM,30.2,30.2,100,30.27,10.0,Calm,Calm,-,N/A,,Clear,0,2012-12-07 03:15:00
10:35 PM,33.8,30.2,87,30.26,10.0,Calm,Calm,-,N/A,,Mostly Cloudy,0,2012-12-07 03:35:00
10:55 PM,33.8,30.2,87,30.26,10.0,Calm,Calm,-,N/A,,Overcast,0,2012-12-07 03:55:00
11:15 PM,35.6,32.0,87,30.26,10.0,SSE,3.5,-,N/A,,Mostly Cloudy,150,2012-12-07 04:15:00
11:35 PM,35.6,32.0,87,30.25,10.0,SSE,5.8,-,N/A,,Mostly Cloudy,160,2012-12-07 04:35:00
11:55 PM,35.6,32.0,87,30.25,10.0,SSE,6.9,-,N/A,,Overcast,160,2012-12-07 04:55:00